Roanoke, VA

8:47 AM EST on December 09, 2019 (GMT -0500)
Roanoke Regional-Woodrum

Weather History for KROA - November, 2019

Change the Weather History Date:

Tuesday, November 12, 2019

  Actual Average Record
Temperature  
Mean Temperature 42 °F 50 °F  
Max Temperature 59 °F 60 °F 80 °F (1931)
Min Temperature 24 °F 39 °F 17 °F (1926)
Degree Days  
Heating Degree Days 24 16  
Month to date heating degree days 225 166  
Since 1 July heating degree days 381 463  
Cooling Degree Days 0 0  
Month to date cooling degree days 0 0  
Year to date cooling degree days 1757 1207  
Moisture  
Dew Point 25 °F    
Average Humidity 60    
Maximum Humidity 80    
Minimum Humidity 41    
Precipitation  
Precipitation 0.02 in 0.11 in 2.88 in (1937)
Month to date precipitation 0.04 1.36  
Year to date precipitation 38.43 36.27  
Snow  
Snow T in - - ()
Month to date snowfall T  
Since 1 July snowfall T  
Since 1 September snowfall T  
Snow Depth 0.00 in    
Sea Level Pressure  
Sea Level Pressure 30.07 in    
Wind  
Wind Speed 12 mph ()    
Max Wind Speed 29 mph    
Max Gust Speed 38 mph    
Visibility 9.4 miles    
Events Rain , Snow    
T = Trace of Precipitation, MM = Missing Value Source: Averaged Metar Reports

Daily Weather History Graph

Daily Weather History Graph

Search for Another Location

Airport or City:

Astronomy

Nov. 12, 2019 Rise Set
Actual Time 6:55 AM EST 5:11 PM EST
Civil Twilight 6:28 AM EST 5:39 PM EST
Nautical Twilight 5:56 AM EST 6:10 PM EST
Astronomical Twilight 5:26 AM EST 6:41 PM EST
Moon 5:37 PM EST (11/12) 6:46 AM EST (11/12)
Length of Visible Light 11h 11m
Length of Day
10h 16m
Full, 100% of the Moon is Illuminated
Nov 12
Full
Nov 19
Last Quarter
Nov 26
New
Dec 4
First Quarter
Dec 12
Full

Hourly Weather History & Observations

Time (EST) Temp. Windchill Dew Point Humidity Pressure Visibility Wind Dir Wind Speed Gust Speed Precip Events Conditions
12:54 AM 57.0 °F - 44.1 °F 62% 29.89 in 10.0 mi SW 11.5 mph 19.6 mph 0.00 in Rain Light Rain
1:54 AM 55.9 °F - 45.0 °F 67% 29.87 in 10.0 mi SW 8.1 mph - 0.00 in Rain Light Rain
2:54 AM 54.0 °F - 46.0 °F 75% 29.86 in 9.0 mi SW 6.9 mph - 0.01 in Rain Light Rain
3:54 AM 53.1 °F - 46.9 °F 80% 29.85 in 10.0 mi West 5.8 mph - 0.01 in   Overcast
4:15 AM 51.1 °F - 43.0 °F 74% 29.88 in 10.0 mi NW 18.4 mph - 0.00 in   Overcast
4:26 AM 50.0 °F - 42.1 °F 74% 29.88 in 10.0 mi WNW 15.0 mph 24.2 mph 0.00 in Rain Light Rain
4:54 AM 48.9 °F - 39.0 °F 69% 29.88 in 10.0 mi West 9.2 mph 19.6 mph 0.00 in Rain Light Rain
5:54 AM 45.0 °F 36.9 °F 33.1 °F 63% 29.93 in 10.0 mi WNW 20.7 mph 26.5 mph 0.00 in   Overcast
6:54 AM 42.1 °F 34.9 °F 30.0 °F 62% 29.97 in 10.0 mi West 13.8 mph 21.9 mph N/A   Overcast
7:54 AM 37.9 °F 30.5 °F 28.9 °F 70% 30.03 in 10.0 mi WNW 11.5 mph 25.3 mph 0.00 in Snow Light Snow
8:52 AM 35.6 °F 26.6 °F 28.4 °F 75% 30.04 in 4.0 mi WNW 13.8 mph - N/A Snow Light Snow
8:54 AM 36.0 °F 27.1 °F 28.9 °F 76% 30.05 in 3.0 mi WNW 13.8 mph - 0.00 in Snow Light Snow
9:28 AM 36.0 °F 27.1 °F 28.9 °F 76% 30.04 in 9.0 mi WNW 13.8 mph 20.7 mph 0.00 in Snow Light Snow
9:54 AM 37.0 °F 27.7 °F 26.1 °F 65% 30.04 in 9.0 mi WNW 16.1 mph 24.2 mph 0.00 in   Overcast
10:54 AM 36.0 °F 25.6 °F 24.1 °F 62% 30.06 in 10.0 mi NW 18.4 mph 32.2 mph N/A   Mostly Cloudy
11:54 AM 36.0 °F 25.3 °F 23.0 °F 59% 30.07 in 10.0 mi NW 19.6 mph 25.3 mph N/A   Mostly Cloudy
12:54 PM 37.9 °F 28.5 °F 19.9 °F 48% 30.06 in 10.0 mi WNW 17.3 mph 24.2 mph N/A   Scattered Clouds
1:54 PM 39.0 °F 29.6 °F 19.0 °F 45% 30.06 in 10.0 mi NNW 18.4 mph 24.2 mph N/A   Scattered Clouds
2:54 PM 36.0 °F 25.3 °F 15.1 °F 43% 30.10 in 10.0 mi NW 19.6 mph 38.0 mph N/A   Scattered Clouds
3:54 PM 33.1 °F 22.2 °F 12.9 °F 43% 30.13 in 10.0 mi WNW 17.3 mph 25.3 mph N/A   Partly Cloudy
4:54 PM 28.9 °F 17.7 °F 10.9 °F 47% 30.18 in 10.0 mi NW 15.0 mph - N/A   Partly Cloudy
5:54 PM 28.0 °F 17.5 °F 10.9 °F 49% 30.21 in 10.0 mi NNW 12.7 mph - N/A   Scattered Clouds
6:54 PM 27.0 °F 13.9 °F 10.0 °F 49% 30.24 in 10.0 mi NNW 18.4 mph 33.4 mph N/A   Scattered Clouds
7:54 PM 27.0 °F 14.7 °F 9.0 °F 47% 30.26 in 10.0 mi NNW 16.1 mph - N/A   Clear
8:54 PM 26.1 °F 16.8 °F 8.1 °F 47% 30.30 in 10.0 mi NNW 9.2 mph - N/A   Mostly Cloudy
9:54 PM 25.0 °F 11.7 °F 8.1 °F 49% 30.32 in 10.0 mi NNW 17.3 mph 21.9 mph N/A   Scattered Clouds
10:54 PM 26.1 °F 17.6 °F 9.0 °F 49% 30.33 in 10.0 mi NNW 8.1 mph - N/A   Mostly Cloudy
11:54 PM 25.0 °F 11.3 °F 9.0 °F 51% 30.34 in 10.0 mi North 18.4 mph - N/A   Scattered Clouds